Regional Weather Roundup
Issued by NWS

Home | Current Version | Previous Version | Text Only | Print | Product List | Glossary On
Versions: 1 2 3 4 5 6 7 8 9 10 11 12 13 14 15 16 17 18 19 20 21 22 23 24 25 26 27
000
ASUS46 KPQR 262010
RWROR

OREGON REGIONAL WEATHER ROUNDUP
NATIONAL WEATHER SERVICE PORTLAND OR
100 PM PDT TUE SEP 26 2017

NOTE: "FAIR" INDICATES FEW OR NO CLOUDS BELOW 12,000 FEET WITH
NO SIGNIFICANT WEATHER AND/OR OBSTRUCTIONS TO VISIBILITY.

ORZ001>013-262100-
NORTHWEST OREGON


CITY           SKY/WX    TMP DP  RH WIND       PRES   REMARKS
ASTORIA        SUNNY     69  56  62 N8        30.12F
NEWPORT        SUNNY     66  59  77 N10       30.13F
PORTLAND       MOSUNNY   71  56  58 W9        30.11F
VANCOUVER WA   SUNNY     72  57  59 NW8       30.11F
SCAPPOOSE      SUNNY     73  54  51 VRB5      30.11F
HILLSBORO      SUNNY     73  56  54 E8        30.11F
AURORA         MOSUNNY   74  54  49 VRB6      30.11F
MCMINNVILLE    SUNNY     75  56  51 N10       30.11F
SALEM          MOSUNNY   73  56  54 NE12G18   30.09F
CORVALLIS      SUNNY     73  56  54 N12G17    30.10F
EUGENE         MOSUNNY   72  56  57 N12       30.10F
$$

ORZ021-028-262100-
SOUTHWEST OREGON


CITY           SKY/WX    TMP DP  RH WIND       PRES   REMARKS
NORTH BEND     SUNNY     70  58  65 N15       30.06F
BROOKINGS      SUNNY     81  53  37 NW8       29.97F
ROSEBURG       SUNNY     73  52  47 N7        30.07F
SEXTON SUMMIT  SUNNY     69  45  41 SE3       30.13F
GRANTS PASS    FAIR      73  48  40 CALM      30.08F
MEDFORD        SUNNY     73  49  42 CALM      30.04F
$$

ORZ014>016-041-262100-
COLUMBIA GORGE


CITY           SKY/WX    TMP DP  RH WIND       PRES   REMARKS
TROUTDALE      SUNNY     72  55  55 VRB3      30.10F
THE DALLES     SUNNY     74  53  48 VRB3      30.13F
$$

ORZ029>031-041-044-049-050-061>064-502-503-505>511-262100-
EASTERN OREGON


CITY           SKY/WX    TMP DP  RH WIND       PRES   REMARKS
MADRAS         SUNNY     68  68 100 N3        30.19
REDMOND        SUNNY     69  44  40 N8        30.16F
BEND           SUNNY     68  45  42 VRB3      30.17
PRINEVILLE     SUNNY     66  45  45 VRB6      30.17F
KLAMATH FALLS  SUNNY     69  39  33 SE7       30.14F
LAKEVIEW       SUNNY     69  35  28 N10G18    30.17F
HERMISTON      SUNNY     74  50  42 N7        30.14F
PENDLETON      SUNNY     71  49  45 VRB3      30.15F
JOHN DAY       PTSUNNY   69  39  34 CALM      30.19S
MEACHAM        MOSUNNY   63  43  48 CALM      30.20F
LA GRANDE      SUNNY     65  47  52 CALM      30.19F
BAKER CITY     SUNNY     70  41  34 W5        30.19F
BURNS          PTSUNNY   66  37  34 E7        30.19F
ROME             N/A     69  35  28 N12       30.16F
ONTARIO        SUNNY     72  43  35 CALM      30.16F
$$




USA.gov is the U.S. government's official web portal to all federal, state and local government web resources and services.